Location: Arbon
(43.0005°N, 0.7472°E)
Time: 20:59:48
(UTC+00:00)

Explorer 7 - Pass Details

Date: 01 December 2020
Orbit: 484 x 678 km, 50.3° (Epoch: 25 January)

Event Time Altitude Azimuth Distance (km) Brightness Sun altitude
Rises 06:24:58 0° 300° (WNW) 2,767 - -8.0°
Exits shadow 06:27:12 10° 300° (WNW) 1,873 8.9 -7.7°
Reaches altitude 10° 06:27:18 10° 300° (WNW) 1,834 8.8 -7.6°
Maximum altitude 06:31:27 89° 220° (SW) 534 6.8 -6.9°
Drops below altitude 10° 06:35:22 10° 122° (ESE) 1,723 11.1 -6.3°
Sets 06:37:30 0° 122° (ESE) 2,583 12.7 -5.9°
